Temp
71 72 72 71 71 72 74 74 74 74 74 74 75 75 75 76 76 76 75 75 74 73 72 73 73 74 75 73 73 74 75 75 74 74 74 74 74 74 74 73 73 72 73 73 73 73 73 73 73 74 74 74 75 69 70 73 72 72 71 71 71 72
71 71 71 72 72 72 72 73 72 72 73 74 75 75 74 73 75 72 74 72 71 72 71 70 72 75 72 73 73 74 75 74 74 74 73 73 73 73 73 73 73 73 72 72 73 68 69 72 73 73 73 74 70 68 70 73 72 71 71 70 70 73
71 71 71 71 71 71 71 70 71 71 73 74 74 73 72 73 71 71 71 71 71 71 71 72 72 73 73 73 73 74 74 74 74 74 73 73 73 73 72 72 72 72 72 72 69 67 66 67 67 73 73 71 67 69 72 72 71 70 70 70 71 75
70 70 69 69 70 69 70 70 70 70 70 71 71 72 72 72 72 71 71 70 70 71 71 71 77 77 75 72 72 74 74 74 74 74 73 72 73 72 73 72 72 72 70 69 66 66 68 68 68 66 67 67 68 70 72 71 71 70 70 73 72 75
69 69 69 69 70 69 69 70 70 70 70 70 71 72 72 71 71 70 70 69 70 70 70 69 69 69 69 70 69 69 70 70 69 68 72 66 67 68 68 67 66 68 65 66 67 67 68 68 67 68 68 68 69 71 71 71 71 69 68 69 70 74
69 68 69 68 69 71 70 68 69 70 70 71 71 71 71 70 69 69 69 69 70 69 68 68 68 68 68 68 68 68 68 68 67 67 69 66 67 67 66 67 67 67 66 67 68 68 69 70 69 67 68 68 70 71 71 70 70 69 68 68 71 73
68 68 68 69 69 70 68 69 70 70 71 70 71 70 69 69 69 69 69 69 68 67 67 66 67 67 67 67 68 68 67 67 67 67 68 67 68 68 67 67 68 68 68 69 70 71 71 72 70 71 70 72 71 72 70 70 69 68 67 68 71 73
68 68 67 68 69 68 68 69 69 67 66 69 68 67 68 68 69 68 69 69 69 67 66 66 67 67 66 66 66 67 67 67 67 67 68 68 68 68 68 68 68 69 70 70 72 74 73 75 69 70 69 70 70 69 70 70 68 68 67 67 69 72
69 69 68 67 68 66 67 67 66 66 66 69 66 66 67 67 68 68 69 70 70 67 67 68 67 66 66 65 65 66 67 66 67 66 67 66 67 66 66 66 67 69 69 70 70 71 72 69 68 70 69 70 70 70 67 68 69 69 67 67 68 70
70 69 68 68 68 67 66 65 65 65 66 67 66 66 67 67 67 68 68 69 70 69 68 66 65 65 65 64 64 65 66 67 66 66 66 65 65 66 65 65 67 67 66 67 68 68 69 69 68 70 69 69 67 67 67 68 69 68 68 67 68 69
67 68 68 68 67 65 66 65 65 66 66 66 66 67 67 67 67 68 68 69 70 70 68 66 65 64 65 64 63 64 66 66 66 65 66 66 66 66 66 65 67 65 65 66 66 67 66 66 69 69 67 68 66 66 67 67 68 67 68 67 67 68
67 67 68 67 66 66 66 65 66 66 66 66 67 67 67 67 68 67 69 69 69 68 68 66 66 65 64 64 64 64 66 66 66 66 66 66 66 65 66 67 67 67 65 66 65 65 66 66 69 68 68 66 66 66 66 66 66 67 67 67 67 68
67 67 66 66 66 66 66 66 66 66 66 67 67 68 67 67 67 67 68 68 68 68 68 66 65 65 65 63 64 64 65 66 66 66 66 67 66 66 66 66 66 66 66 65 65 64 66 68 67 66 67 67 66 66 66 67 66 67 68 67 66 66
67 66 66 65 66 66 66 66 66 66 67 67 66 67 67 67 67 67 68 68 67 67 67 66 66 65 64 64 64 65 66 66 66 66 65 66 65 65 65 65 65 65 66 64 64 64 66 66 66 65 65 66 66 65 64 66 66 67 67 68 67 67
67 66 66 66 66 65 66 66 66 66 66 66 67 68 67 67 68 68 68 67 67 67 66 67 67 65 64 64 65 66 66 65 66 66 66 66 65 64 65 65 65 64 64 64 64 64 66 66 65 66 65 65 65 66 66 66 67 68 68 67 67 66
66 66 66 66 66 66 66 66 66 68 67 69 69 69 67 68 69 69 68 67 68 68 67 66 67 67 65 65 66 66 65 66 66 65 65 66 66 64 64 64 65 65 64 63 64 64 66 66 66 66 65 65 65 66 65 66 67 67 67 67 66 64
66 66 66 66 66 65 65 66 67 69 69 69 69 68 69 69 70 69 68 68 67 68 67 67 67 67 66 66 65 66 66 66 66 65 65 65 65 64 64 64 64 65 64 63 63 64 64 65 66 65 65 64 64 64 64 65 66 66 70 66 64 65
66 66 66 66 66 66 66 66 67 68 69 68 68 68 69 70 69 68 69 68 68 68 67 67 67 67 66 66 65 65 65 66 65 64 65 65 64 64 64 64 64 64 64 63 63 62 62 65 66 65 64 65 64 65 64 65 66 67 65 65 63 64
67 66 66 66 66 66 66 66 67 68 67 66 68 68 69 68 68 68 69 70 69 68 68 68 67 67 66 66 65 64 64 64 65 64 65 65 64 64 64 65 64 63 64 64 63 64 63 64 66 66 65 64 64 65 64 65 64 65 65 66 66 66
67 67 67 67 67 66 66 65 65 66 66 66 67 68 68 68 68 67 69 71 70 68 68 67 67 67 66 65 63 63 64 63 64 65 65 64 63 63 64 64 64 64 63 64 64 65 64 65 65 64 63 64 64 64 65 65 65 66 65 66 66 65
67 68 67 66 66 65 65 64 64 65 64 65 67 67 68 68 69 69 70 70 70 68 68 67 68 67 65 66 64 63 64 64 64 65 64 64 64 64 65 64 64 64 63 63 63 63 65 66 64 62 63 62 64 64 66 65 65 66 67 67 66 65
66 66 66 66 66 64 64 65 63 62 63 63 65 67 66 68 68 70 69 69 69 69 68 67 67 66 66 65 64 63 64 63 64 64 65 65 64 64 65 65 65 63 63 62 62 63 65 64 61 59 59 59 59 62 63 63 66 68 67 68 66 64
64 64 64 65 64 63 62 63 63 63 63 66 69 70 71 70 70 70 68 69 68 67 67 66 67 67 66 65 64 64 63 63 63 64 63 63 64 63 64 64 65 62 60 61 62 64 63 61 59 59 59 58 56 55 59 60 62 66 67 67 67 67
64 63 63 64 64 64 64 63 63 64 67 70 70 69 69 69 70 70 69 69 68 67 66 66 66 67 67 65 64 63 63 63 64 63 63 63 63 64 64 64 64 62 62 60 61 60 62 61 60 62 57 55 55 54 53 57 58 64 66 68 68 69
64 64 64 64 63 63 65 63 64 67 68 68 68 67 66 66 67 68 68 67 67 67 67 66 66 67 66 65 64 64 64 64 64 64 64 64 64 65 65 65 65 63 61 60 59 59 60 61 62 62 58 56 55 53 52 55 58 60 63 64 68 70
64 64 64 64 64 65 65 65 64 64 64 64 63 64 63 63 64 65 66 67 68 68 67 65 65 65 65 65 65 65 65 65 64 64 64 64 66 66 64 65 65 63 63 63 61 59 58 60 61 61 61 60 57 53 55 58 55 54 63 64 66 69
64 64 65 65 64 65 64 64 65 66 65 64 63 64 63 65 65 65 67 66 67 67 67 66 64 64 64 65 65 65 65 65 65 64 66 64 64 65 66 67 66 64 64 63 62 59 59 59 60 61 62 60 61 61 61 58 54 57 55 58 61 62
65 65 66 65 64 65 65 64 65 66 65 65 65 64 65 65 66 67 65 66 65 65 66 66 65 65 65 65 65 64 64 63 64 64 65 65 65 65 67 68 66 65 64 64 63 61 60 60 60 58 60 60 61 62 61 60 59 57 55 54 56 62
64 65 65 65 65 65 66 65 65 65 64 65 66 65 65 66 64 64 64 65 66 66 66 66 65 65 65 67 67 65 64 64 64 65 66 66 65 66 65 65 64 64 63 63 64 62 61 60 61 59 60 60 60 60 60 60 61 60 56 55 54 57
64 63 64 64 66 66 66 66 66 65 65 64 65 64 64 63 63 63 63 63 63 64 64 65 65 66 66 66 66 66 66 65 65 65 65 65 65 65 64 64 64 64 65 64 63 63 62 60 61 61 62 61 61 59 59 60 60 59 60 60 57 56
64 63 63 63 65 66 66 67 67 66 66 64 64 64 63 62 61 62 63 63 63 63 64 64 63 65 65 65 64 64 64 65 65 65 65 65 64 64 63 63 63 64 65 64 64 62 62 62 62 61 62 61 61 61 60 57 58 58 58 56 55 56
63 63 63 63 64 65 64 66 66 66 65 65 65 65 64 62 62 62 61 61 62 63 63 64 63 63 63 64 64 63 64 64 64 64 65 65 65 65 64 64 63 64 63 63 63 63 63 62 62 61 62 62 62 62 61 60 61 60 60 59 59 56
62 63 64 63 63 64 64 66 66 66 65 65 65 65 64 63 63 63 61 62 62 61 62 63 61 63 64 63 63 64 65 64 63 63 64 65 64 65 66 64 63 62 63 62 62 63 62 61 61 61 60 61 62 62 62 61 62 61 61 61 60 57
62 62 63 63 63 64 65 65 65 65 65 65 64 64 64 64 63 63 63 62 62 62 62 62 63 61 62 65 63 64 64 64 62 63 63 63 65 66 65 64 63 63 63 62 61 60 60 60 60 61 62 60 60 61 61 60 60 62 61 60 59 59
63 63 63 63 63 63 64 65 65 64 64 65 64 63 62 64 63 63 62 62 62 62 62 62 63 64 62 63 63 64 63 63 64 63 62 63 65 63 63 64 64 62 61 61 62 61 60 61 62 60 59 59 61 60 60 60 59 62 62 63 62 60
64 63 63 63 63 63 64 65 65 64 64 64 64 64 63 64 63 62 62 63 63 62 63 62 63 63 63 63 63 63 63 62 61 62 63 64 63 63 63 62 61 62 62 65 62 61 60 61 61 60 60 60 62 60 60 62 63 60 61 63 62 59
64 63 63 63 63 63 64 64 64 64 64 63 64 63 63 62 62 62 63 63 63 62 63 64 64 62 61 60 60 61 63 62 62 61 62 62 62 62 62 61 61 60 60 60 62 62 59 60 57 59 60 60 59 60 60 60 62 61 62 62 62 61
MSLP
1013.61 1013.77 1013.97 1014.21 1014.49 1014.65 1014.77 1014.93 1015.13 1015.33 1015.49 1015.65 1015.85 1016.01 1016.17 1016.29 1016.49 1016.69 1016.85 1016.97 1017.09 1017.21 1017.37 1017.49 1017.61 1017.57 1017.49 1017.69 1017.89 1018.13 1018.33 1018.53 1018.69 1018.81 1018.89 1018.93 1019.05 1019.21 1019.29 1019.37 1019.49 1019.57 1019.61 1019.61 1019.61 1019.57 1019.53 1019.45 1019.45 1019.45 1019.37 1019.33 1019.33 1019.65 1019.77 1019.81 1019.97 1020.13 1020.21 1020.37 1020.49 1020.61
1013.85 1014.01 1014.17 1014.41 1014.65 1014.85 1015.01 1015.21 1015.41 1015.57 1015.77 1015.89 1016.05 1016.21 1016.37 1016.57 1016.73 1016.97 1017.05 1017.17 1017.25 1017.37 1017.57 1017.77 1017.81 1017.69 1017.69 1017.77 1018.01 1018.29 1018.49 1018.65 1018.81 1018.93 1019.01 1019.09 1019.13 1019.25 1019.37 1019.45 1019.57 1019.65 1019.69 1019.65 1019.65 1019.65 1019.61 1019.53 1019.49 1019.53 1019.45 1019.37 1019.49 1019.77 1019.81 1019.93 1020.13 1020.29 1020.41 1020.57 1020.61 1020.65
1014.01 1014.17 1014.37 1014.61 1014.81 1015.01 1015.21 1015.41 1015.61 1015.77 1015.93 1016.09 1016.25 1016.41 1016.57 1016.81 1017.01 1017.17 1017.25 1017.25 1017.37 1017.49 1017.69 1017.89 1017.93 1017.89 1017.81 1017.89 1018.17 1018.45 1018.65 1018.77 1018.89 1019.05 1019.13 1019.17 1019.21 1019.29 1019.41 1019.53 1019.61 1019.65 1019.73 1019.73 1019.69 1019.77 1019.73 1019.65 1019.61 1019.57 1019.53 1019.45 1019.61 1019.97 1019.97 1020.09 1020.21 1020.37 1020.57 1020.61 1020.69 1020.73
1014.13 1014.33 1014.57 1014.85 1015.01 1015.17 1015.37 1015.53 1015.73 1015.93 1016.17 1016.29 1016.41 1016.57 1016.77 1017.01 1017.17 1017.29 1017.37 1017.41 1017.49 1017.65 1017.77 1017.81 1017.73 1017.73 1017.81 1018.09 1018.33 1018.53 1018.69 1018.85 1019.05 1019.17 1019.25 1019.29 1019.29 1019.37 1019.45 1019.53 1019.57 1019.61 1019.69 1019.73 1019.77 1019.85 1019.89 1019.81 1019.73 1019.65 1019.61 1019.61 1019.65 1020.17 1020.17 1020.21 1020.33 1020.53 1020.65 1020.69 1020.81 1020.85
1014.25 1014.45 1014.65 1014.93 1015.17 1015.41 1015.57 1015.69 1015.93 1016.13 1016.33 1016.53 1016.65 1016.73 1016.97 1017.17 1017.33 1017.45 1017.57 1017.65 1017.69 1017.85 1017.93 1017.93 1017.89 1017.93 1018.13 1018.33 1018.57 1018.73 1018.85 1019.09 1019.21 1019.33 1019.33 1019.49 1019.45 1019.45 1019.49 1019.57 1019.57 1019.57 1019.61 1019.73 1019.89 1019.93 1019.93 1019.93 1019.89 1019.77 1019.65 1019.65 1019.73 1020.17 1020.29 1020.29 1020.41 1020.65 1020.77 1020.85 1020.93 1020.97
1014.49 1014.65 1014.81 1015.01 1015.33 1015.53 1015.73 1016.13 1016.25 1016.29 1016.57 1016.73 1016.97 1017.05 1017.17 1017.37 1017.53 1017.73 1017.85 1017.85 1017.97 1018.13 1018.13 1018.09 1018.05 1018.13 1018.37 1018.53 1018.77 1018.93 1019.05 1019.17 1019.33 1019.45 1019.41 1019.57 1019.57 1019.57 1019.57 1019.57 1019.61 1019.61 1019.57 1019.61 1019.77 1019.89 1019.93 1019.89 1019.97 1019.85 1019.81 1019.73 1019.97 1020.29 1020.33 1020.41 1020.45 1020.65 1020.85 1020.93 1021.01 1021.05
1014.61 1014.77 1014.89 1014.97 1015.25 1015.57 1016.09 1016.37 1016.45 1016.65 1016.81 1017.01 1017.05 1017.29 1017.49 1017.61 1017.77 1017.85 1017.93 1017.97 1018.25 1018.29 1018.21 1018.17 1018.21 1018.29 1018.57 1018.65 1018.93 1019.05 1019.17 1019.21 1019.33 1019.41 1019.41 1019.53 1019.61 1019.57 1019.61 1019.61 1019.65 1019.69 1019.57 1019.61 1019.65 1019.73 1019.81 1019.77 1019.81 1019.89 1020.09 1020.33 1020.21 1020.37 1020.45 1020.49 1020.49 1020.65 1020.89 1021.01 1021.05 1021.09
1014.65 1014.81 1015.05 1015.21 1015.53 1016.09 1016.65 1016.77 1017.09 1017.49 1017.41 1017.33 1017.41 1017.61 1017.73 1017.89 1017.89 1017.97 1018.01 1018.09 1018.17 1018.17 1018.13 1018.17 1018.29 1018.49 1018.73 1018.81 1019.05 1019.17 1019.21 1019.29 1019.33 1019.41 1019.45 1019.53 1019.65 1019.65 1019.61 1019.69 1019.73 1019.69 1019.61 1019.57 1019.65 1019.57 1019.57 1019.61 1020.09 1020.21 1020.33 1020.41 1020.29 1020.25 1020.37 1020.49 1020.61 1020.77 1020.93 1021.05 1021.13 1021.21
1014.89 1015.21 1015.37 1015.77 1016.37 1016.93 1017.29 1017.53 1017.85 1018.01 1017.89 1017.65 1017.69 1017.85 1017.89 1017.97 1018.01 1018.01 1018.01 1018.09 1018.17 1018.21 1018.09 1018.17 1018.45 1018.61 1018.73 1018.97 1019.09 1019.21 1019.21 1019.25 1019.33 1019.45 1019.45 1019.61 1019.65 1019.77 1019.85 1019.89 1019.97 1019.93 1019.77 1019.85 1019.73 1019.73 1019.73 1020.05 1020.25 1020.29 1020.29 1020.37 1020.37 1020.41 1020.53 1020.69 1020.77 1020.81 1020.97 1021.05 1021.13 1021.21
1014.85 1015.37 1015.97 1016.29 1016.49 1016.97 1017.41 1017.93 1018.17 1018.01 1017.81 1017.77 1017.93 1017.93 1017.97 1018.05 1018.05 1018.05 1018.09 1018.05 1018.05 1018.13 1018.13 1018.33 1018.57 1018.69 1018.93 1019.13 1019.17 1019.21 1019.21 1019.25 1019.41 1019.53 1019.57 1019.81 1019.81 1019.81 1019.97 1020.05 1020.13 1020.01 1020.01 1020.09 1020.05 1020.01 1020.29 1020.01 1020.21 1020.33 1020.33 1020.53 1020.61 1020.65 1020.57 1020.65 1020.77 1020.85 1021.01 1021.21 1021.33 1021.41
1015.41 1015.57 1015.85 1016.09 1016.41 1016.57 1016.81 1017.33 1017.81 1018.05 1017.81 1017.85 1017.77 1017.85 1018.05 1018.09 1018.05 1018.05 1018.01 1017.97 1017.97 1018.01 1018.13 1018.37 1018.53 1018.69 1018.89 1019.05 1019.13 1019.21 1019.29 1019.33 1019.53 1019.61 1019.61 1019.81 1019.81 1019.89 1019.97 1020.25 1020.33 1020.25 1020.21 1020.17 1020.29 1020.41 1021.41 1021.09 1020.57 1020.57 1020.61 1020.73 1020.81 1020.65 1020.65 1020.73 1020.77 1020.89 1021.09 1021.33 1021.49 1021.57
1015.53 1015.61 1015.69 1015.81 1016.01 1016.25 1016.69 1017.09 1017.29 1017.65 1017.97 1017.81 1017.89 1018.05 1018.17 1018.17 1018.21 1018.09 1017.97 1018.01 1017.93 1017.97 1018.05 1018.29 1018.45 1018.73 1018.93 1018.97 1019.05 1019.17 1019.29 1019.37 1019.49 1019.53 1019.61 1019.73 1019.85 1019.93 1020.01 1020.17 1020.17 1020.17 1020.05 1020.21 1020.49 1020.73 1021.77 1021.37 1020.61 1020.65 1020.89 1020.85 1020.89 1020.77 1020.77 1020.81 1020.89 1021.01 1021.17 1021.37 1021.57 1021.73
1015.33 1015.45 1015.69 1015.89 1015.81 1015.81 1016.21 1016.69 1017.01 1017.29 1017.57 1017.61 1017.61 1017.69 1018.17 1018.17 1018.09 1018.01 1017.93 1017.97 1017.97 1017.97 1018.01 1018.25 1018.37 1018.53 1018.73 1018.97 1019.05 1019.25 1019.37 1019.37 1019.37 1019.49 1019.65 1019.73 1019.85 1019.89 1019.97 1020.05 1020.17 1020.13 1020.09 1020.21 1020.57 1021.01 1021.93 1020.65 1020.53 1020.73 1020.81 1020.97 1020.97 1021.01 1020.93 1020.97 1021.01 1021.09 1021.25 1021.37 1021.57 1021.85
1015.49 1015.77 1015.85 1015.89 1015.89 1015.77 1016.05 1016.41 1016.77 1017.13 1017.37 1017.45 1017.49 1017.29 1017.77 1017.93 1017.97 1017.93 1017.97 1018.05 1018.05 1018.05 1018.13 1018.21 1018.33 1018.53 1018.69 1018.89 1019.01 1019.13 1019.29 1019.41 1019.49 1019.57 1019.73 1019.85 1019.97 1019.97 1020.17 1020.29 1020.41 1020.49 1020.45 1020.41 1020.65 1021.49 1021.81 1020.77 1020.81 1020.77 1020.85 1020.93 1021.01 1021.13 1021.13 1021.13 1021.13 1021.17 1021.21 1021.41 1021.61 1022.13
1015.09 1015.37 1015.41 1015.53 1015.69 1015.77 1015.97 1016.33 1016.85 1017.25 1017.29 1017.25 1017.33 1017.45 1017.69 1017.77 1017.57 1017.57 1017.69 1017.89 1017.97 1018.01 1018.13 1018.29 1018.45 1018.61 1018.73 1018.85 1019.01 1019.09 1019.25 1019.37 1019.41 1019.53 1019.73 1019.85 1019.93 1020.05 1020.13 1020.33 1020.45 1020.57 1020.69 1020.65 1020.73 1021.49 1021.41 1020.97 1021.01 1021.01 1021.01 1020.93 1021.05 1021.17 1021.21 1021.21 1021.13 1021.21 1021.33 1021.49 1021.93 1022.89
1014.97 1015.09 1015.25 1015.41 1015.61 1015.85 1016.13 1016.45 1016.65 1016.97 1017.21 1017.25 1017.21 1017.21 1017.17 1017.33 1017.37 1017.45 1017.61 1017.81 1017.97 1018.09 1018.21 1018.25 1018.41 1018.57 1018.77 1018.77 1018.97 1019.09 1019.17 1019.25 1019.45 1019.49 1019.53 1019.73 1019.85 1020.05 1020.13 1020.29 1020.45 1020.61 1020.73 1020.97 1020.97 1021.17 1021.37 1021.17 1021.17 1021.21 1021.17 1021.13 1021.13 1021.09 1021.17 1021.21 1021.25 1021.25 1021.29 1021.57 1022.61 1022.89
1015.05 1015.13 1015.37 1015.49 1015.65 1015.93 1016.25 1016.53 1016.69 1016.81 1017.05 1017.09 1017.13 1017.13 1016.97 1017.05 1017.21 1017.29 1017.49 1017.73 1017.93 1018.13 1018.21 1018.25 1018.33 1018.57 1018.85 1018.89 1018.93 1019.09 1019.17 1019.29 1019.41 1019.45 1019.61 1019.85 1019.97 1020.05 1020.21 1020.37 1020.53 1020.57 1020.57 1021.01 1021.09 1021.13 1021.37 1021.49 1021.37 1021.33 1021.33 1021.37 1021.29 1021.21 1021.25 1021.29 1021.33 1021.41 1021.41 1022.13 1022.93 1022.69
1015.25 1015.41 1015.69 1015.89 1016.05 1016.25 1016.45 1016.61 1016.69 1016.77 1016.89 1017.01 1017.09 1017.09 1017.09 1017.17 1017.29 1017.37 1017.49 1017.69 1017.81 1017.97 1018.13 1018.25 1018.33 1018.57 1018.81 1018.85 1018.85 1019.09 1019.17 1019.21 1019.29 1019.45 1019.65 1019.89 1020.09 1020.17 1020.25 1020.29 1020.57 1020.73 1020.73 1021.01 1021.33 1021.33 1021.37 1022.01 1021.57 1021.53 1021.45 1021.41 1021.33 1021.29 1021.29 1021.29 1021.33 1021.37 1021.61 1022.45 1023.05 1022.45
1015.45 1015.53 1015.69 1015.85 1016.01 1016.25 1016.41 1016.49 1016.57 1016.77 1016.97 1017.09 1017.13 1017.13 1017.17 1017.29 1017.33 1017.37 1017.45 1017.57 1017.77 1017.97 1018.05 1018.17 1018.37 1018.61 1018.85 1018.89 1019.01 1019.17 1019.21 1019.21 1019.21 1019.41 1019.61 1019.89 1020.21 1020.33 1020.29 1020.33 1020.49 1020.69 1020.81 1020.89 1021.05 1021.29 1021.81 1022.05 1021.65 1021.65 1021.65 1021.57 1021.41 1021.41 1021.41 1021.33 1021.33 1021.41 1021.49 1022.01 1022.45 1022.25
1015.37 1015.41 1015.53 1015.73 1015.97 1016.33 1016.49 1016.69 1017.01 1017.09 1017.21 1017.25 1017.21 1017.29 1017.29 1017.29 1017.33 1017.45 1017.45 1017.53 1017.77 1017.97 1018.05 1018.17 1018.41 1018.65 1018.77 1018.89 1019.05 1019.21 1019.29 1019.29 1019.33 1019.41 1019.69 1019.93 1020.25 1020.33 1020.37 1020.45 1020.53 1020.57 1020.93 1021.05 1021.05 1021.29 1021.97 1021.77 1021.73 1021.81 1021.85 1021.73 1021.69 1021.69 1021.61 1021.57 1021.49 1021.49 1021.61 1022.05 1022.21 1022.17
1015.33 1015.37 1015.65 1016.01 1016.21 1016.33 1016.61 1016.85 1016.89 1016.97 1017.13 1017.13 1017.17 1017.13 1017.25 1017.25 1017.37 1017.37 1017.41 1017.65 1017.85 1018.05 1018.05 1018.17 1018.41 1018.65 1018.89 1018.93 1018.97 1019.09 1019.21 1019.29 1019.25 1019.45 1019.69 1019.89 1020.01 1020.21 1020.25 1020.33 1020.45 1020.45 1020.77 1021.13 1021.33 1021.25 1021.33 1021.37 1021.81 1022.25 1022.17 1022.09 1022.05 1021.85 1021.77 1021.69 1021.65 1021.49 1021.61 1021.85 1022.05 1022.13
1015.21 1015.41 1015.57 1015.69 1015.89 1016.09 1016.17 1016.29 1016.45 1016.73 1016.81 1016.97 1017.17 1017.29 1017.53 1017.45 1017.37 1017.41 1017.45 1017.65 1017.81 1017.89 1018.09 1018.33 1018.61 1018.85 1018.89 1019.01 1019.05 1019.17 1019.25 1019.37 1019.41 1019.53 1019.69 1019.77 1019.97 1020.09 1020.25 1020.37 1020.41 1020.69 1020.65 1021.01 1021.33 1021.29 1021.33 1021.41 1022.09 1022.37 1022.73 1022.85 1022.57 1022.17 1021.97 1021.89 1021.85 1021.77 1021.73 1021.93 1022.05 1022.29
1015.13 1015.29 1015.49 1015.57 1015.73 1015.97 1016.09 1015.97 1016.05 1016.41 1016.53 1016.69 1016.69 1016.85 1016.97 1017.13 1017.21 1017.45 1017.53 1017.65 1017.81 1017.97 1018.25 1018.53 1018.57 1018.69 1018.85 1018.89 1018.85 1019.17 1019.41 1019.41 1019.49 1019.57 1019.81 1020.01 1019.97 1020.13 1020.21 1020.37 1020.41 1020.57 1021.01 1021.01 1021.21 1021.29 1021.41 1021.49 1022.13 1022.17 1022.29 1022.77 1023.41 1023.37 1022.69 1022.29 1022.17 1022.01 1021.85 1022.17 1022.21 1022.37
1015.05 1015.17 1015.37 1015.49 1015.49 1015.57 1015.61 1015.77 1015.93 1016.09 1016.17 1016.37 1016.77 1016.73 1016.85 1017.05 1017.25 1017.49 1017.77 1017.77 1017.89 1018.09 1018.25 1018.45 1018.65 1018.73 1018.89 1018.85 1018.81 1019.09 1019.29 1019.49 1019.57 1019.49 1019.61 1020.01 1020.09 1020.17 1020.21 1020.37 1020.41 1020.57 1020.73 1021.33 1021.45 1021.73 1021.49 1021.57 1021.73 1022.05 1023.17 1023.21 1023.41 1023.33 1023.97 1023.53 1022.97 1022.41 1022.17 1022.17 1022.21 1022.45
1014.89 1014.97 1015.09 1015.25 1015.37 1015.49 1015.65 1015.89 1016.01 1016.17 1016.21 1016.41 1016.57 1016.85 1017.21 1017.57 1017.53 1017.61 1017.81 1017.97 1018.01 1017.97 1018.17 1018.45 1018.53 1018.65 1018.77 1018.93 1018.89 1019.05 1019.17 1019.29 1019.37 1019.33 1019.37 1019.69 1020.05 1020.13 1020.21 1020.21 1020.33 1020.61 1020.77 1021.09 1021.69 1021.73 1021.69 1021.65 1021.77 1021.81 1022.17 1023.05 1023.53 1023.77 1023.81 1023.29 1023.05 1023.05 1022.45 1022.53 1022.57 1022.49
1014.85 1014.93 1015.05 1015.21 1015.25 1015.37 1015.69 1016.01 1016.29 1016.61 1016.93 1017.09 1017.41 1017.45 1017.77 1017.97 1017.93 1017.97 1018.09 1017.97 1018.01 1018.05 1018.17 1018.29 1018.37 1018.49 1018.65 1018.77 1018.81 1018.85 1018.97 1019.17 1019.21 1019.33 1019.45 1019.61 1019.69 1020.01 1020.37 1020.21 1020.33 1020.57 1020.69 1020.77 1021.25 1021.65 1021.77 1021.81 1021.77 1021.85 1021.93 1021.97 1022.21 1022.85 1023.33 1022.97 1023.09 1024.41 1023.13 1022.97 1022.93 1022.73
1014.69 1014.85 1014.97 1015.13 1015.25 1015.49 1015.65 1015.77 1016.05 1016.45 1016.69 1017.05 1017.41 1017.57 1017.45 1017.49 1017.65 1017.81 1017.77 1017.93 1018.01 1018.13 1018.13 1018.21 1018.33 1018.33 1018.49 1018.61 1018.73 1018.77 1018.89 1019.09 1019.25 1019.33 1019.41 1019.57 1019.73 1019.81 1019.97 1020.05 1020.21 1020.37 1020.61 1020.81 1021.09 1021.61 1021.61 1021.89 1021.97 1022.01 1022.01 1021.93 1021.93 1021.97 1021.89 1022.73 1023.57 1023.61 1024.25 1023.73 1023.25 1023.13
1014.65 1014.85 1014.93 1015.09 1015.33 1015.41 1015.45 1015.69 1016.05 1016.37 1016.69 1017.09 1017.29 1017.57 1017.53 1017.57 1017.53 1017.57 1017.69 1017.85 1018.01 1018.09 1018.13 1018.25 1018.41 1018.45 1018.45 1018.53 1018.69 1018.85 1018.89 1019.01 1019.21 1019.41 1019.41 1019.49 1019.57 1019.57 1019.73 1019.89 1020.13 1020.29 1020.45 1020.73 1020.97 1021.21 1021.57 1021.69 1021.85 1022.21 1022.13 1022.13 1022.09 1021.93 1021.89 1022.05 1022.33 1022.89 1023.65 1024.37 1024.25 1023.45
1014.69 1014.81 1014.89 1014.97 1015.13 1015.21 1015.25 1015.61 1016.01 1016.41 1016.97 1017.13 1017.17 1017.41 1017.45 1017.45 1017.53 1017.65 1017.93 1018.01 1018.13 1018.25 1018.21 1018.17 1018.21 1018.33 1018.33 1018.41 1018.57 1018.81 1018.93 1019.05 1019.13 1019.29 1019.41 1019.57 1019.53 1019.61 1019.77 1020.17 1020.45 1020.41 1020.49 1020.49 1020.65 1020.97 1021.33 1021.65 1021.69 1021.97 1022.21 1022.29 1022.25 1022.29 1022.17 1022.21 1022.37 1022.49 1023.25 1024.17 1024.53 1024.21
1014.93 1014.97 1014.97 1015.01 1014.97 1015.01 1015.21 1015.53 1016.01 1016.37 1016.81 1017.17 1017.25 1017.49 1017.45 1017.65 1017.77 1017.81 1018.09 1018.21 1018.21 1018.29 1018.37 1018.45 1018.41 1018.37 1018.41 1018.41 1018.45 1018.53 1018.77 1018.89 1018.93 1019.05 1019.29 1019.49 1019.57 1019.73 1019.85 1020.01 1020.13 1020.25 1020.37 1020.53 1020.57 1020.81 1021.17 1021.41 1021.45 1021.65 1021.73 1021.97 1022.37 1022.49 1022.49 1022.61 1022.69 1022.81 1023.05 1023.13 1024.05 1024.25
1014.97 1015.01 1014.97 1014.97 1014.93 1015.09 1015.29 1015.53 1015.89 1016.25 1016.57 1017.01 1017.33 1017.53 1017.81 1017.93 1017.97 1018.01 1018.13 1018.25 1018.33 1018.41 1018.41 1018.53 1018.53 1018.57 1018.45 1018.49 1018.53 1018.65 1018.85 1018.93 1018.97 1019.05 1019.25 1019.37 1019.57 1019.73 1019.93 1019.97 1020.09 1020.17 1020.29 1020.41 1020.53 1020.65 1020.93 1021.09 1021.25 1021.53 1021.65 1021.73 1022.01 1022.09 1022.21 1022.61 1022.73 1022.73 1022.89 1023.49 1023.89 1024.09
1015.05 1015.01 1015.01 1015.01 1015.05 1015.21 1015.53 1015.77 1015.89 1016.13 1016.57 1016.97 1017.25 1017.61 1017.89 1018.13 1018.13 1018.21 1018.17 1018.37 1018.41 1018.45 1018.57 1018.53 1018.61 1018.69 1018.69 1018.57 1018.65 1018.89 1018.89 1019.01 1019.17 1019.21 1019.37 1019.37 1019.53 1019.77 1020.01 1020.13 1020.17 1020.33 1020.45 1020.41 1020.49 1020.65 1020.85 1021.05 1021.21 1021.37 1021.45 1021.49 1021.69 1021.73 1021.77 1021.93 1022.13 1022.33 1022.65 1023.17 1023.29 1023.81
1015.17 1015.09 1015.01 1015.05 1015.17 1015.29 1015.53 1015.81 1016.05 1016.29 1016.65 1016.93 1017.21 1017.53 1017.85 1018.05 1018.09 1018.13 1018.25 1018.37 1018.53 1018.69 1018.73 1018.85 1018.89 1018.93 1018.85 1018.81 1018.93 1019.05 1019.13 1019.25 1019.41 1019.41 1019.41 1019.45 1019.61 1019.73 1019.97 1020.17 1020.37 1020.45 1020.41 1020.53 1020.57 1020.65 1020.89 1021.01 1021.17 1021.33 1021.45 1021.45 1021.57 1021.73 1021.69 1021.61 1021.81 1022.13 1022.37 1022.81 1023.17 1023.69
1015.21 1015.25 1015.17 1015.21 1015.37 1015.49 1015.61 1015.85 1016.05 1016.37 1016.65 1016.93 1017.25 1017.53 1017.77 1017.97 1018.05 1018.05 1018.13 1018.21 1018.41 1018.61 1018.81 1018.89 1018.93 1019.05 1019.05 1019.01 1019.05 1019.05 1019.09 1019.25 1019.29 1019.37 1019.49 1019.61 1019.69 1019.85 1020.05 1020.21 1020.33 1020.41 1020.49 1020.53 1020.57 1020.69 1020.81 1020.85 1020.89 1021.01 1021.21 1021.49 1021.49 1021.57 1021.65 1021.49 1021.53 1021.77 1022.37 1022.93 1023.29 1023.21
1015.37 1015.45 1015.49 1015.49 1015.69 1015.77 1015.89 1016.01 1016.21 1016.45 1016.73 1016.97 1017.29 1017.53 1017.73 1017.81 1017.93 1018.01 1018.05 1018.17 1018.45 1018.57 1018.77 1018.97 1019.01 1019.05 1019.09 1019.13 1019.21 1019.21 1019.29 1019.37 1019.41 1019.49 1019.65 1019.85 1019.97 1020.09 1020.17 1020.29 1020.41 1020.53 1020.65 1020.65 1020.69 1020.65 1020.77 1020.81 1020.93 1021.13 1021.29 1021.45 1021.61 1021.65 1021.57 1021.61 1021.53 1021.53 1021.85 1022.29 1022.61 1022.89
1015.61 1015.69 1015.77 1015.81 1015.93 1015.97 1016.09 1016.17 1016.37 1016.65 1016.85 1017.01 1017.29 1017.49 1017.69 1017.77 1017.85 1017.85 1018.05 1018.29 1018.57 1018.65 1018.81 1018.89 1018.97 1019.05 1019.13 1019.17 1019.29 1019.41 1019.45 1019.61 1019.65 1019.77 1019.89 1020.01 1020.21 1020.33 1020.41 1020.53 1020.69 1020.69 1020.77 1020.61 1020.65 1020.73 1020.85 1020.89 1021.01 1021.13 1021.29 1021.29 1021.33 1021.57 1021.45 1021.29 1021.21 1021.37 1021.53 1021.81 1022.09 1022.49
1015.97 1015.93 1016.01 1016.13 1016.13 1016.21 1016.25 1016.41 1016.65 1016.81 1016.97 1017.17 1017.33 1017.49 1017.69 1017.81 1017.89 1017.97 1018.17 1018.33 1018.57 1018.69 1018.73 1018.81 1018.97 1019.05 1019.21 1019.29 1019.45 1019.61 1019.73 1019.81 1019.89 1019.97 1020.09 1020.21 1020.33 1020.41 1020.53 1020.69 1020.81 1020.81 1020.85 1020.69 1020.65 1020.81 1020.97 1021.13 1021.29 1021.25 1021.25 1021.33 1021.49 1021.57 1021.53 1021.33 1021.45 1021.65 1021.81 1022.05 1022.25 1022.37
Wind_Speed
6 8 8 7 7 7 10 14 12 14 15 15 14 13 13 13 12 11 10 10 9 6 4 5 7 6 12 8 9 10 10 9 8 8 7 6 5 4 3 3 4 4 3 3 4 3 3 5 5 5 7 7 7 5 4 7 7 6 6 6 6 6
7 7 8 7 6 6 7 10 8 8 7 10 12 11 9 6 8 5 8 6 4 4 4 3 4 9 6 8 9 11 10 9 8 7 6 5 4 4 3 2 2 3 2 2 2 1 2 5 5 6 7 8 4 3 3 6 7 6 6 5 5 7
7 6 8 7 6 6 7 6 7 7 7 9 9 7 5 7 5 5 4 5 5 5 3 3 3 6 6 10 8 10 9 9 8 7 7 5 4 3 2 1 2 1 1 2 2 1 1 2 3 5 6 5 2 5 6 6 7 6 6 5 4 10
6 6 7 7 6 6 6 6 6 6 5 5 5 5 6 5 5 4 5 4 5 4 3 2 8 13 11 6 6 8 9 9 8 7 6 3 2 1 1 2 1 1 1 1 2 2 2 2 3 3 3 4 2 6 6 6 6 6 5 6 5 10
6 6 7 7 7 6 6 6 5 6 6 5 4 5 5 6 6 5 5 4 4 3 3 4 6 6 6 6 4 4 3 4 3 3 5 2 0 1 0 0 1 1 1 1 2 2 3 2 3 3 5 4 1 6 6 6 6 6 5 5 5 10
6 5 6 6 6 6 6 6 5 6 6 5 4 4 5 5 5 5 4 4 4 2 3 4 5 6 6 5 4 4 4 3 3 3 3 1 2 1 1 1 2 1 2 2 2 3 3 3 4 4 3 3 4 5 6 6 6 6 5 5 5 10
7 5 5 5 6 6 5 5 6 5 5 4 4 5 5 5 5 5 4 2 3 3 3 4 5 5 5 4 4 4 3 3 3 3 3 2 1 0 2 2 1 1 2 2 3 3 4 6 5 4 2 7 6 6 5 6 6 7 5 5 6 10
6 6 4 3 6 6 3 6 6 8 8 7 6 5 5 4 4 4 3 2 2 2 4 5 4 5 4 3 3 3 4 4 2 4 2 1 1 2 2 1 1 2 3 3 3 4 6 3 8 6 8 5 7 6 5 5 6 6 5 5 5 8
5 4 3 4 6 6 7 8 10 5 4 4 4 5 4 3 3 2 3 3 2 3 2 4 4 4 4 3 2 3 3 3 3 3 3 2 2 2 3 4 4 4 4 4 6 4 1 11 6 2 6 6 5 5 6 6 6 6 5 5 5 7
8 6 6 4 6 8 8 10 8 6 3 5 2 2 2 3 2 2 4 3 2 2 2 4 4 4 4 3 2 2 2 3 4 3 2 3 2 4 3 4 4 4 5 5 6 9 5 7 6 3 5 6 3 4 4 5 6 6 5 5 4 5
6 8 4 7 8 10 10 11 9 2 2 4 3 4 1 1 2 3 3 3 2 3 3 4 4 4 4 3 2 1 1 3 4 3 3 3 2 2 3 5 4 3 5 5 6 8 6 6 3 5 4 5 2 3 4 5 5 6 6 5 4 4
9 6 4 7 8 10 11 11 11 7 4 6 4 4 3 3 3 2 2 2 3 4 4 3 3 3 4 3 3 2 0 2 3 4 3 3 3 3 3 3 2 2 5 6 8 8 6 5 4 6 5 5 1 3 4 4 5 5 6 6 5 4
8 10 8 7 8 9 10 10 10 8 6 8 7 6 4 4 4 3 2 3 3 3 3 4 3 3 3 3 2 2 3 2 3 4 3 4 4 3 4 4 2 3 5 6 9 7 8 2 7 4 5 5 4 3 2 4 4 5 6 6 5 5
8 8 8 9 6 9 9 8 7 7 7 7 5 6 5 4 5 4 4 4 3 2 3 4 4 3 3 2 1 1 3 4 4 4 4 4 4 3 5 4 1 5 5 6 7 4 8 6 4 4 4 3 4 4 2 3 3 3 4 6 5 6
11 9 10 8 8 8 8 7 7 7 7 5 5 5 5 5 4 3 5 4 3 3 3 3 3 3 2 2 2 2 4 4 5 4 5 4 5 4 4 4 3 4 4 6 7 0 3 6 4 5 3 4 5 3 2 2 1 2 4 4 7 8
8 8 8 8 7 8 7 7 7 7 7 6 5 5 5 5 4 5 4 5 4 4 3 2 3 4 2 2 2 3 4 4 4 4 5 5 4 5 4 5 4 3 6 5 4 2 3 5 3 4 3 4 2 1 3 4 3 2 2 6 9 7
8 7 6 6 7 6 6 6 5 5 5 6 6 4 3 2 3 4 4 4 4 4 3 3 2 2 4 2 2 4 4 4 4 4 5 4 4 4 5 6 5 3 5 4 4 4 4 2 4 3 3 3 2 2 2 3 3 3 4 9 10 6
5 5 5 6 7 7 6 5 5 6 5 6 5 5 6 5 5 5 5 4 5 5 4 3 3 3 2 2 2 3 2 4 4 5 5 5 4 3 5 5 6 2 5 5 4 4 4 3 4 4 3 3 3 4 2 2 2 3 5 9 7 6
6 6 6 7 7 6 6 5 5 5 5 4 4 4 4 4 5 5 5 6 5 5 5 4 5 4 4 3 2 3 3 3 3 4 5 5 4 3 4 4 5 4 4 5 5 5 4 4 5 3 3 2 2 3 2 1 1 3 3 7 8 4
7 7 7 6 6 6 5 6 6 4 5 5 5 5 5 5 4 4 3 5 5 4 4 4 4 4 5 4 3 4 3 2 3 3 4 5 4 4 5 5 5 5 6 4 3 7 8 4 5 5 3 4 4 2 3 2 2 1 1 6 7 5
7 7 7 6 6 6 5 5 3 6 6 6 6 5 4 4 5 4 4 6 6 5 5 5 5 6 5 4 4 4 4 2 2 1 3 4 5 4 4 4 4 3 5 4 1 2 2 4 6 4 4 4 5 3 3 3 2 1 3 6 6 5
6 6 6 6 6 5 4 5 5 4 3 3 4 4 4 5 5 5 6 5 5 5 4 4 4 3 4 4 2 2 3 2 2 2 3 3 3 4 5 5 4 3 1 3 3 1 2 3 2 4 5 2 3 4 3 3 2 2 2 3 6 5
6 6 6 6 6 6 3 4 4 3 3 2 4 6 7 6 6 6 6 6 7 5 5 5 4 5 6 4 3 4 2 2 2 1 3 4 3 3 5 6 4 5 3 1 3 2 2 1 3 3 3 5 1 2 4 4 3 2 3 1 5 4
7 6 6 5 5 5 6 4 3 4 4 5 7 6 6 6 6 7 6 6 6 6 6 5 4 4 5 4 3 4 3 3 4 3 4 5 3 3 4 4 4 3 5 4 2 1 1 2 2 7 3 1 2 4 3 1 0 1 1 0 3 5
7 7 6 6 7 6 5 3 2 4 4 7 6 6 6 6 5 6 7 6 4 5 5 5 4 6 6 6 4 4 5 5 5 3 3 4 4 4 2 3 5 5 3 4 4 1 1 2 1 2 5 4 3 2 1 3 1 3 5 3 5 5
6 6 7 6 7 7 6 7 6 6 7 7 6 6 6 5 5 6 6 4 5 5 4 4 4 5 5 5 4 3 3 3 3 4 3 3 4 5 5 3 4 6 3 1 5 4 1 1 1 2 2 2 3 3 6 3 4 3 4 5 4 6
7 6 7 7 6 5 6 6 7 8 7 7 7 3 3 5 6 6 6 5 6 6 5 4 3 4 4 4 4 4 4 3 3 4 4 4 4 5 5 5 4 5 6 4 5 3 5 4 2 1 1 2 1 1 5 5 3 4 6 4 5 6
6 6 5 5 4 4 6 5 6 6 6 7 8 7 6 6 5 6 6 4 4 3 3 4 4 3 4 4 3 3 3 3 4 3 3 6 5 3 5 5 6 3 3 5 6 7 4 4 6 2 2 2 0 3 3 3 3 5 5 5 2 4
6 6 6 7 6 4 5 6 6 7 7 6 7 6 6 5 6 6 6 5 7 5 4 3 3 3 5 6 6 5 4 3 4 4 3 2 2 2 3 6 6 6 5 4 5 5 6 5 4 4 4 1 1 2 3 3 2 3 3 4 2 3
5 4 4 5 5 5 6 7 9 9 9 7 7 6 6 5 5 5 6 5 5 6 6 5 5 5 5 4 5 5 5 4 3 3 3 3 4 6 5 5 4 5 5 5 3 5 7 6 5 5 5 5 4 2 3 3 1 2 3 3 6 4
6 5 4 4 5 6 6 7 9 9 9 8 7 7 6 4 4 4 5 5 5 6 5 6 5 4 4 4 4 4 4 4 4 4 4 4 6 6 5 4 3 3 3 4 5 5 5 5 6 6 5 6 6 7 7 5 6 3 4 3 4 3
5 5 4 4 5 5 6 6 7 8 8 8 8 7 7 5 4 4 4 4 5 6 4 5 5 4 3 3 5 5 5 5 5 5 6 5 5 6 6 4 3 1 2 3 4 4 4 5 5 5 5 5 6 5 4 4 6 6 7 7 8 7
6 5 5 4 4 5 6 7 7 7 7 8 8 7 6 6 5 5 4 5 5 6 6 6 4 5 2 3 5 5 6 6 5 4 5 5 4 6 6 4 4 3 4 4 4 4 5 5 5 5 6 3 3 3 4 4 5 6 6 7 7 7
7 4 4 4 4 5 6 7 7 7 7 7 7 6 6 6 5 5 5 5 5 6 6 6 5 3 3 5 4 5 5 5 4 4 4 4 5 5 5 6 5 5 4 3 3 4 4 4 4 4 5 5 3 3 1 2 4 6 7 7 6 8
7 4 3 4 4 5 6 6 6 6 6 6 7 6 5 5 5 5 4 4 4 6 6 5 7 5 4 5 5 5 4 4 3 3 4 4 4 4 4 4 4 4 3 3 4 5 5 5 5 5 5 6 6 4 3 3 5 6 8 9 8 7
6 4 3 4 4 5 5 6 6 6 6 6 5 5 5 5 4 5 4 6 6 6 6 6 5 6 5 5 5 4 4 4 4 5 5 6 4 5 5 5 4 5 4 3 6 5 4 6 7 6 5 5 8 4 3 4 5 6 6 7 6 5
4 3 4 4 4 4 6 6 5 5 5 5 6 6 6 5 5 5 6 7 7 6 6 6 6 4 4 4 4 5 5 5 4 4 5 5 5 6 5 5 5 5 4 4 5 6 4 6 4 5 6 6 6 5 3 4 7 6 7 7 7 6
Wind_Direction
126 122 118 112 107 111 120 118 117 119 118 118 118 119 126 130 128 127 128 124 117 112 117 121 129 135 127 115 111 116 124 126 126 128 125 123 125 127 141 137 132 124 143 163 165 187 231 264 289 299 297 303 320 35 45 98 106 111 108 111 114 119
127 123 121 117 112 110 115 115 109 114 114 118 121 123 122 120 115 101 103 94 97 107 102 119 136 129 115 119 116 122 130 131 129 128 125 126 138 137 137 141 112 132 161 168 209 183 251 275 281 294 299 301 331 41 87 113 110 108 103 101 112 120
129 127 116 111 117 117 113 111 112 111 115 119 119 120 116 108 94 90 88 88 88 96 114 132 121 127 122 114 119 127 132 135 137 136 136 143 150 144 121 73 52 83 107 244 255 250 260 265 284 285 293 302 333 52 100 106 105 101 101 108 110 122
123 116 109 113 117 117 114 114 109 104 103 107 113 117 108 106 91 91 83 78 79 84 96 137 139 127 118 107 121 130 135 138 141 142 143 133 139 91 80 29 330 328 76 277 266 266 273 239 253 244 268 281 300 85 110 104 99 100 108 112 115 120
110 113 113 116 125 123 117 114 107 107 107 104 105 108 102 91 103 94 81 73 70 69 86 88 83 87 97 107 106 111 108 100 107 123 136 112 117 272 68 339 266 221 179 215 260 256 257 251 205 228 235 267 292 94 107 107 111 104 95 98 116 122
111 118 116 115 123 121 109 107 122 116 108 108 100 84 90 91 89 74 60 71 71 76 82 80 80 91 87 103 117 117 131 133 137 152 154 112 185 233 227 258 286 223 205 200 215 243 248 237 207 224 235 257 15 107 105 108 110 110 106 105 108 114
128 130 121 121 116 112 101 117 108 114 112 95 90 86 78 83 83 85 79 74 112 123 110 95 93 89 89 86 118 140 148 157 156 159 173 158 176 197 213 249 279 291 261 232 245 231 229 224 181 208 33 53 73 89 103 111 113 113 114 112 113 107
132 134 137 109 97 80 68 62 63 46 33 60 70 82 88 66 86 101 117 132 138 138 128 120 106 96 101 81 79 91 113 94 92 82 100 123 163 286 292 285 303 330 318 318 325 281 237 171 52 50 95 85 86 102 108 112 111 110 114 117 113 107
102 78 68 30 85 82 64 49 73 68 63 75 84 90 83 80 98 140 148 151 159 137 121 109 102 110 111 105 108 90 100 117 102 98 100 60 59 31 21 11 15 5 353 351 322 319 218 73 79 77 97 102 103 103 100 109 119 125 127 128 124 121
131 90 72 85 71 98 100 83 87 121 147 93 78 92 99 118 190 172 164 183 160 145 130 115 115 110 111 115 95 122 140 144 131 120 102 82 52 39 25 18 29 30 11 16 356 349 354 116 126 102 93 106 86 68 91 118 136 129 125 114 112 114
71 95 86 119 111 117 114 106 102 126 150 106 119 133 209 179 195 200 176 195 151 127 116 112 129 122 112 125 105 88 137 130 120 121 106 99 89 77 56 54 23 29 45 8 14 23 353 47 112 103 89 70 73 94 87 102 110 121 117 116 112 113
116 126 144 126 126 118 115 124 135 156 168 145 153 169 196 188 210 238 197 190 129 117 130 127 136 128 129 129 129 136 83 115 125 116 118 118 91 60 57 72 55 48 54 52 22 17 322 189 110 102 109 109 181 113 103 94 97 115 119 126 131 113
111 119 125 122 135 132 133 139 143 158 159 173 178 169 172 188 202 201 190 138 129 124 126 142 144 128 127 134 142 151 177 142 135 113 108 104 93 80 61 52 16 54 51 53 38 12 285 154 93 97 126 136 122 98 85 86 97 107 138 142 129 114
109 116 132 150 156 127 138 142 146 148 168 174 187 163 172 202 201 182 156 139 138 122 104 127 144 138 125 142 143 203 149 103 104 105 99 102 97 98 93 91 52 51 58 61 63 6 252 68 80 87 72 94 89 89 109 109 128 141 131 133 127 100
145 156 159 159 142 135 141 139 142 155 167 169 177 168 161 186 191 150 121 125 128 130 118 145 138 135 134 140 180 129 99 112 117 122 120 119 112 95 113 110 100 98 86 76 88 48 291 90 87 89 90 84 97 126 139 133 168 174 142 125 104 82
151 152 142 136 128 134 136 140 151 153 155 175 171 169 171 150 146 138 141 140 138 137 146 170 158 145 156 181 194 134 122 125 123 129 118 111 109 112 104 96 82 83 93 81 97 128 313 104 102 95 83 77 91 103 113 125 121 98 103 104 80 93
148 143 121 113 108 103 111 127 140 157 164 148 156 161 163 164 160 157 162 157 153 143 156 174 173 140 132 129 85 89 108 119 123 113 99 97 101 114 107 101 86 88 105 108 97 74 24 28 93 83 83 85 61 42 70 92 91 98 96 82 86 133
119 108 106 110 117 121 125 134 141 143 127 125 138 151 151 152 155 166 166 166 158 154 168 178 148 127 115 115 119 110 103 110 108 107 109 109 107 103 110 115 110 98 105 104 92 95 85 302 108 103 92 82 50 43 17 60 92 84 101 102 112 171
116 120 119 125 129 131 134 131 123 120 130 142 156 162 155 147 163 160 159 161 156 155 166 163 141 135 120 124 112 103 104 111 108 118 124 119 114 115 111 104 118 124 98 105 134 115 104 229 116 106 100 100 107 92 55 65 113 117 120 100 136 164
134 139 137 129 128 135 140 141 143 139 149 168 170 165 169 164 154 159 164 144 135 136 141 144 136 134 127 130 129 128 120 107 115 114 128 126 133 134 126 120 132 135 120 110 123 129 175 164 94 91 80 51 43 59 63 84 51 67 82 104 127 146
143 141 139 142 147 145 138 140 140 162 162 167 157 167 143 127 121 132 114 115 124 148 152 155 138 135 135 135 134 125 109 122 123 143 141 154 149 143 135 138 137 134 133 120 100 136 166 125 114 72 48 60 43 26 56 59 22 356 63 131 133 141
129 134 139 144 142 141 153 163 151 160 126 131 123 115 111 125 123 111 106 113 116 116 112 105 97 107 106 96 96 78 104 123 147 170 155 157 151 150 137 136 140 108 57 123 127 126 185 112 62 132 123 62 13 1 20 29 32 323 29 129 135 146
129 131 141 144 140 143 152 153 122 158 155 139 137 155 126 125 118 112 112 111 108 106 98 92 102 111 108 118 138 96 105 93 108 145 106 114 139 163 157 152 166 145 115 63 97 55 42 73 148 114 105 84 57 48 340 5 14 49 347 63 138 147
138 139 140 154 139 132 129 136 132 153 157 133 133 120 110 111 102 107 110 111 117 131 135 131 130 123 120 141 141 138 131 139 152 163 135 128 172 172 156 146 131 143 135 122 107 52 38 56 124 130 100 143 176 116 72 326 280 290 285 8 132 150
148 147 148 141 128 125 106 75 77 96 106 91 77 84 90 92 106 108 107 112 132 123 142 141 140 126 139 140 157 158 166 159 155 147 131 146 146 168 105 124 133 134 147 136 129 111 358 66 59 70 140 107 51 35 197 221 107 3 8 40 39 52
144 144 140 140 139 133 139 139 123 110 97 99 101 101 113 126 107 117 126 137 137 139 145 139 145 142 133 136 154 181 154 150 135 138 145 140 155 140 156 152 149 140 151 172 125 112 117 41 82 62 83 142 164 169 170 192 88 99 21 54 54 62
151 150 147 147 151 150 138 129 125 126 124 123 116 84 99 109 117 124 123 131 136 138 153 147 154 138 147 152 155 162 167 161 156 160 154 140 154 161 162 167 146 152 173 150 128 131 172 167 91 58 95 52 35 172 150 126 168 130 75 350 18 46
149 147 151 145 162 174 132 123 120 110 104 108 109 117 112 115 116 122 108 112 101 102 112 133 149 171 160 157 147 148 163 168 153 170 166 165 179 178 160 164 152 152 150 163 159 150 175 174 151 160 118 106 41 60 95 96 117 145 143 118 42 6
150 155 160 164 166 168 131 126 114 109 107 113 111 110 107 102 92 83 87 79 93 108 100 79 77 108 139 133 136 140 151 178 186 180 181 191 183 148 145 121 137 154 182 189 186 152 144 174 152 149 123 98 76 100 100 102 113 102 130 111 75 107
157 164 169 170 169 158 136 121 122 123 121 115 104 96 98 97 89 100 104 113 118 101 87 77 63 69 72 76 81 88 92 81 74 146 153 148 120 97 93 109 127 148 165 184 161 141 151 167 165 149 149 152 141 140 84 59 44 94 89 107 149 161
167 169 174 181 165 152 129 131 127 127 127 123 119 113 101 98 95 87 102 113 115 114 107 91 75 52 68 74 73 53 75 85 73 80 100 104 98 108 100 92 77 79 121 125 120 115 122 150 154 152 154 157 161 166 167 163 183 164 144 122 102 128
167 175 174 173 132 108 105 117 120 125 122 126 126 126 129 140 132 134 139 117 115 104 97 93 90 85 50 53 59 79 81 66 58 66 74 89 95 103 111 104 70 49 128 105 107 121 131 146 154 158 166 170 173 172 165 149 171 156 139 155 150 158
175 181 170 147 122 120 117 120 125 124 126 130 131 133 144 148 154 150 142 130 117 121 113 94 85 97 97 50 77 78 76 68 63 79 97 93 83 95 116 130 152 152 108 113 129 135 142 160 147 152 183 194 146 145 196 201 150 163 139 145 151 145
178 190 162 136 133 123 123 124 124 127 127 127 131 138 149 150 161 154 147 148 139 137 120 128 122 102 98 99 85 95 89 79 71 72 90 108 111 111 116 120 123 121 130 137 111 101 119 130 118 132 136 137 137 164 218 228 186 159 142 137 159 153
169 181 163 140 130 113 116 111 109 112 111 117 131 130 141 141 143 129 147 127 126 118 114 107 104 106 91 89 90 80 84 85 66 48 60 86 91 96 101 102 103 109 93 98 100 104 87 87 84 87 89 118 119 102 116 142 125 140 153 152 156 164
160 151 148 135 130 116 114 111 106 113 122 122 116 117 109 107 123 127 114 110 111 111 116 114 102 97 95 99 97 91 77 64 59 67 82 103 105 107 106 105 103 108 120 119 99 84 88 90 93 93 96 85 75 71 58 48 61 72 94 127 141 136
133 115 110 113 103 100 110 111 115 121 127 117 121 122 121 113 98 90 104 109 110 115 108 104 107 111 108 78 81 91 92 97 94 89 82 95 102 97 97 103 112 105 105 102 96 99 88 87 98 95 86 86 93 80 54 61 64 78 99 112 124 125